Atwater, CA

5:54 PM PST on November 18, 2017 (GMT -0800)
Castle

Weather History for KMER - August, 2014

Change the Weather History Date:

Friday, August 8, 2014

  Actual Average (KMCE) Record (KMCE)
Temperature  
Mean Temperature 81 °F -  
Max Temperature 98 °F 97 °F 105 °F (2001)
Min Temperature 64 °F 60 °F 54 °F (2007)
Cooling Degree Days 16    
Growing Degree Days 31 (Base 50)    
Moisture  
Dew Point 55 °F    
Average Humidity 48    
Maximum Humidity 73    
Minimum Humidity 21    
Precipitation  
Precipitation 0.00 in - - ()
Sea Level Pressure  
Sea Level Pressure 29.84 in    
Wind  
Wind Speed 4 mph (NNW)    
Max Wind Speed 13 mph    
Max Gust Speed -    
Visibility 10 miles    
Events      
Averages and records for this station are not official NWS values.
T = Trace of Precipitation, MM = Missing Value Source: NWS Daily Summary

Daily Weather History Graph

Daily Weather History Graph

Search for Another Location

Airport or City:

Trip Planner

Search our weather history database for the weather conditions in past years. The results will help you decide how hot, cold, wet, or windy it might be!

Date:

Astronomy

Aug. 08, 2014 Rise Set
Actual Time 6:12 AM PDT 8:02 PM PDT
Civil Twilight 5:44 AM PDT 8:30 PM PDT
Nautical Twilight 5:09 AM PDT 9:05 PM PDT
Astronomical Twilight 4:33 AM PDT 9:41 PM PDT
Moon 6:18 PM PDT (8/8) 3:51 AM PDT (8/8)
Length of Visible Light 14h 46m
Length of Day
13h 49m
Waxing Gibbous, 94% of the Moon is Illuminated
Aug 8
Waxing Gibbous
Aug 10
Full
Aug 17
Last Quarter
Aug 25
New
Sep 2
First Quarter

Hourly Weather History & Observations

Time (PDT) Temp. Heat Index Dew Point Humidity Pressure Visibility Wind Dir Wind Speed Gust Speed Precip Events Conditions
12:15 AM 75.2 °F - 51.8 °F 44% 29.85 in 10.0 mi NNW 5.8 mph - N/A   Clear
12:35 AM 75.2 °F - 51.8 °F 44% 29.85 in 10.0 mi Calm Calm - N/A   Clear
12:55 AM 73.4 °F - 53.6 °F 50% 29.85 in 10.0 mi Calm Calm - N/A   Clear
1:15 AM 71.6 °F - 53.6 °F 53% 29.85 in 10.0 mi Calm Calm - N/A   Clear
1:35 AM 71.6 °F - 55.4 °F 57% 29.85 in 9.0 mi Calm Calm - N/A   Clear
1:55 AM 69.8 °F - 55.4 °F 60% 29.85 in 10.0 mi Calm Calm - N/A   Clear
2:15 AM 71.6 °F - 55.4 °F 57% 29.85 in 10.0 mi Calm Calm - N/A   Clear
2:35 AM 69.8 °F - 55.4 °F 60% 29.84 in 10.0 mi Calm Calm - N/A   Clear
2:55 AM 71.6 °F - 51.8 °F 50% 29.84 in 10.0 mi NW 4.6 mph - N/A   Clear
3:15 AM 71.6 °F - 51.8 °F 50% 29.85 in 10.0 mi North 4.6 mph - N/A   Clear
3:35 AM 71.6 °F - 53.6 °F 53% 29.84 in 10.0 mi NNW 3.5 mph - N/A   Clear
3:55 AM 69.8 °F - 53.6 °F 56% 29.84 in 10.0 mi NW 4.6 mph - N/A   Clear
4:15 AM 69.8 °F - 53.6 °F 56% 29.84 in 10.0 mi NNW 4.6 mph - N/A   Clear
4:35 AM 68.0 °F - 53.6 °F 60% 29.84 in 10.0 mi North 4.6 mph - N/A   Clear
4:55 AM 66.2 °F - 55.4 °F 68% 29.84 in 10.0 mi Calm Calm - N/A   Clear
5:15 AM 64.4 °F - 55.4 °F 73% 29.84 in 10.0 mi Calm Calm - N/A   Clear
5:35 AM 64.4 °F - 55.4 °F 73% 29.84 in 10.0 mi Calm Calm - N/A   Clear
5:55 AM 66.2 °F - 55.4 °F 68% 29.85 in 10.0 mi North - - N/A   Clear
7:45 AM 71.6 °F - 55.4 °F 57% 29.87 in 10.0 mi NW 9.2 mph - N/A   Clear
8:45 AM 75.2 °F - 55.4 °F 50% 29.88 in 10.0 mi NNW 9.2 mph - N/A   Clear
9:45 AM 80.6 °F 80.3 °F 53.6 °F 39% 29.88 in 10.0 mi NNW 5.8 mph - N/A   Clear
10:45 AM 86.0 °F 84.2 °F 53.6 °F 33% 29.87 in 10.0 mi NW 6.9 mph - N/A   Clear
11:45 AM 89.6 °F - 51.8 °F 27% 29.88 in 10.0 mi WNW 3.5 mph - N/A   Clear
12:45 PM 93.2 °F - 51.8 °F 24% 29.86 in 10.0 mi WNW 3.5 mph - N/A   Clear
1:50 PM 96.8 °F - 51.8 °F 22% 29.84 in 10.0 mi North 8.1 mph - N/A   Clear
2:45 PM 98.6 °F - 51.8 °F 21% 29.82 in 10.0 mi NNW 9.2 mph - N/A   Clear
3:45 PM 98.6 °F - 51.8 °F 21% 29.80 in 10.0 mi NNW 6.9 mph - N/A   Clear
4:45 PM 95.0 °F 92.7 °F 53.6 °F 25% 29.79 in 10.0 mi NNW 11.5 mph - N/A   Clear
5:45 PM 93.2 °F 91.3 °F 55.4 °F 28% 29.79 in 10.0 mi North 12.7 mph - N/A   Clear
7:45 PM 87.8 °F 86.1 °F 55.4 °F 33% 29.80 in 10.0 mi NNW 5.8 mph - N/A   Clear
8:15 PM 82.4 °F 82.0 °F 57.2 °F 42% 29.80 in 9.0 mi North - - N/A   Clear
8:35 PM 82.4 °F 82.0 °F 57.2 °F 42% 29.80 in 10.0 mi North - - N/A   Clear
8:45 PM 82.4 °F 82.0 °F 57.2 °F 42% 29.80 in 10.0 mi NW 9.2 mph - N/A   Clear
8:55 PM 82.4 °F 82.0 °F 57.2 °F 42% 29.81 in 10.0 mi North - - N/A   Clear
9:15 PM 82.4 °F 82.0 °F 57.2 °F 42% 29.82 in 10.0 mi North - - N/A   Clear
9:35 PM 80.6 °F 80.8 °F 57.2 °F 45% 29.82 in 10.0 mi North - - N/A   Clear
10:15 PM 77.0 °F - 57.2 °F 50% 29.82 in 10.0 mi Calm Calm - N/A   Clear
10:35 PM 73.4 °F - 60.8 °F 65% 29.82 in 10.0 mi Calm Calm - N/A   Clear
10:55 PM 73.4 °F - 60.8 °F 65% 29.82 in 10.0 mi Calm Calm - N/A   Clear
11:15 PM 71.6 °F - 59.0 °F 64% 29.83 in 10.0 mi West 3.5 mph - N/A   Clear
11:35 PM 73.4 °F - 59.0 °F 61% 29.83 in 9.0 mi NW 5.8 mph - N/A   Clear
11:55 PM 73.4 °F - 57.2 °F 57% 29.83 in 10.0 mi WNW 5.8 mph - N/A   Clear